map of KTKV home
KTKV - Airport
Location
City:  Tomahawk, Wisconsin, United States
Name:Tomahawk Regional
ICAO:KTKV
FAA LID:TKV

Details
Type:Airport (Airfield)
Use:Public/Civil
Latitude:4528'10"N (45.469361)
Longitude:8948'18"W (-89.804888)
Datum:WGS 1984
Elevation:1486 ft (453 m)
Variation:2.69W (WMM2015 magnetic declination)
-0.05 annual change
Runways:1
Longest:4401 × 75 ft (1341 × 23 m), paved

Time
Time Zone:UTC-6 (DST-5)
Local Time:

Weather
METAR:KTKV 302135Z AUTO 05006KT 10SM CLR 20/09 A3026 RMK AO2 T02030090

Related Locations
Nearby:
Farthest:MQZ: 10901 mi / 17543 km
Margaret River [Margaret River Airport], WA, AU

Find:

   beyond  
but within

Other Information
Maps:
NOTAMs:
Links:
Sources:

  
flag of United States
flag of Wisconsin
  

Sectional Chart

Flight Planning
at skyvector.com

Satellite Image

Google Maps Satellite view

 

Copyright © 2004-2016 Karl L. Swartz. All rights reserved.
The Great Circle Mapper name and logo are trademarks of the Great Circle Mapper.
All other trademarks mentioned herein belong to their respective owners.
Please see credits for attibutions and further copyright information.

  Follow gcmap on Facebook Follow gcmap on Twitter Follow gcmap on Google+ GCmap on LinkedIn

hCard Microformat

Geo Microformat